Weather in Royal Leamington Spa

United Kingdom     52°17′16″N   1°32′24″W
temp.,
°C
wind,
m/s
gust,
m/s
humid.,
%
clouds,
%
prec.,
mm/h
press.,
hPa
HPBL,
m
18 april, sun
sun1801:00+1ese2284100 0.0 102810
04:00+1e1186100 0.0 102610
07:00+2ene1183100 0.0 102610
10:00+8ene2266100 0.0 1026450
13:00+11ene225393 0.0 10251057
16:00+12ene225350 0.0 10241339
19:00+10ese23705 0.0 102439
22:00+5ese227324 0.0 102510
19 april, mon
mon1901:00+2ese22832 0.0 102513
04:00+1ese11851 0.0 102410
07:00+2e11820 0.0 102412
10:00+9ese22670 0.0 1023471
13:00+13se22585 0.0 10221208
16:00+14sse225785 0.0 10201515
19:00+11se2269100 0.1 102013
22:00+10s1167100 0.0 102010
20 april, tue
tue2001:00+9e1171100 0.0 102012
04:00+8ene1179100 0.0 101911
07:00+8e2283100 0.0 101930
10:00+10e2276100 0.0 1020363
13:00+14ene115996 0.3 10191383
16:00+14nne336289 0.5 10191199
19:00+11ne368095 1.0 1020131
22:00+7ne228874 0.0 102119
21 april, wed
wed2101:00+6ne2290100 0.0 102117
04:00+5ne33925 0.0 102249
07:00+4ne399510 0.0 1022231
10:00+10ene678075 0.0 1023863
13:00+11e566837 0.3 1024933
16:00+11ene5566100 0.0 10231193
19:00+9ene587195 0.1 1024390
22:00+4e49835 0.0 1026230
22 april, thu
thu2201:00+1e36895 0.0 1026104
04:000e22915 0.0 102715
07:000ene12855 0.0 102750
10:00+7e34615 0.0 1027676
13:00+11ese34505 0.0 10261089
16:00+12ese34515 0.0 10261185
19:00+10e35731 0.0 1026130
22:00+4se36870 0.0 102683